Location: Crescent
(42.8242°N, 73.7329°W)
Time: 18:35:44
(UTC+00:00)

Vanguard 1 Rocket - Visible Passes

Search period start: 07 November 2024 00:00
Search period end: 17 November 2024 00:00
Orbit: 651 x 4217 km, 34.3° (Epoch: 06 November)

Date Brightness Start Highest point End Pass type
(mag) Time Alt. Az. Time Alt. Az. Time Alt. Az.
07 Nov 9.2 22:32:45 10° W 22:42:34 39° SSW 22:48:14 10° SE visible
08 Nov 9.5 23:48:33 10° W 23:54:34 21° SW 23:58:48 10° S visible
09 Nov 9.5 22:33:05 10° W 22:43:01 35° SSW 22:48:50 10° SE visible
10 Nov 9.8 23:49:31 10° W 23:54:48 17° SW 23:58:43 10° S visible
11 Nov 9.7 22:33:26 10° W 22:43:22 32° SSW 22:49:17 10° SSE visible
12 Nov 10.1 23:50:53 10° WSW 23:54:54 14° SW 23:58:08 10° SSW visible
13 Nov 9.9 22:33:53 10° W 22:43:35 27° SW 22:49:33 10° SSE visible
14 Nov 10.5 23:53:50 10° WSW 23:54:54 10° SW 23:55:54 10° SW visible
15 Nov 10.2 22:34:27 10° W 22:43:39 23° SW 22:49:35 10° S visible
